Location: Newark
(51.0089°N, 21.5817°E)
Time: 03:12:03
(UTC+00:00)

AO-73 - Visible Passes

Search period start: 28 February 2020 00:00
Search period end: 09 March 2020 00:00
Orbit: 583 x 662 km, 97.6° (Epoch: 27 February)

Date Brightness Start Highest point End Pass type
(mag) Time Alt. Az. Time Alt. Az. Time Alt. Az.
28 Feb ? 03:17:36 10° ENE 03:18:40 11° E 03:19:44 10° E visible
28 Feb ? 17:30:53 10° W 17:32:05 11° W 17:33:16 10° WNW visible
29 Feb ? 03:34:17 10° NE 03:37:04 16° E 03:39:48 10° SE visible
01 Mar ? 03:51:48 10° NE 03:55:24 23° E 03:58:56 10° SE visible
02 Mar ? 04:09:35 10° NNE 04:13:42 32° E 04:17:42 10° SSE visible
02 Mar ? 16:46:00 10° SSW 16:49:45 25° W 16:53:34 10° NW visible
03 Mar ? 04:27:32 10° NNE 04:31:56 47° E 04:36:13 10° S visible
03 Mar ? 17:05:00 10° SW 17:08:05 18° W 17:11:12 10° NW visible
04 Mar ? 17:24:35 10° WSW 17:26:27 12° W 17:28:20 10° WNW visible
05 Mar ? 03:29:02 10° NE 03:31:26 14° E 03:33:49 10° ESE visible
06 Mar ? 03:46:25 10° NE 03:49:48 20° E 03:53:05 10° SE visible
07 Mar ? 04:04:10 10° NNE 04:08:06 29° E 04:11:56 10° SSE visible
08 Mar ? 04:22:03 10° NNE 04:26:20 42° E 04:30:30 10° S visible
08 Mar ? 16:59:09 10° SW 17:02:28 20° W 17:05:49 10° NW visible
